[[{"header":{"parameterUnit":"m.s-1","parameterCategory":1,"la1":30.2991,"la2":30.254,"lo1":-89.0895,"lo2":-89.0444,"dy":0.0017,"dx":0.0017,"nx":28,"ny":28,"refTime":"2024-10-03T09:00:00:Z","depth":0,"parameterNumber":2,"parameterNumberName":"U-component_of_WINDS"},"data":[0,0,0,0,0,0,0,0,0,0,0,0,0,0,0,0,0,0,0,0,0,0,0,0,0,0,0,0,0,0,0,0,0,0,0,0,0,0,0,0,0,0,0,0,0,0,0,0,0,0,0,0,0,0,0,0,0,0,-0.16,-0.16,0,-0.1617,-0.1617,-0.1618,-0.1614,-0.1614,-0.1614,-0.1613,-0.1633,-0.1633,-0.1634,0,0,0,0,0,0,0,0,0,0,0,0,0,-0.1563,-0.1564,-0.16,-0.16,-0.16,-0.1617,-0.1617,-0.1618,-0.1614,-0.1614,-0.1614,-0.1613,-0.1632,-0.1633,-0.1634,0,0,0,0,0,0,0,0,0,0,0,0,0,-0.158,-0.1564,-0.16,-0.1601,-0.1601,-0.1617,-0.1617,-0.1618,-0.1614,-0.1614,-0.1614,-0.1613,-0.1632,-0.1633,-0.1634,-0.1651,0,0,-0.1638,-0.1639,0,0,0,0,0,0,0,0,-0.1579,-0.1581,-0.16,-0.1601,-0.1601,-0.1613,-0.1612,-0.1629,-0.1615,-0.1609,-0.1613,-0.1613,-0.1627,-0.1628,-0.1633,-0.1652,-0.1653,-0.1638,-0.1639,-0.1639,-0.164,0,0,0,0,0,0,0,-0.1578,-0.158,-0.1607,-0.16,-0.1601,-0.16,-0.1602,-0.1615,-0.162,-0.161,-0.161,-0.1612,-0.1627,-0.1631,-0.1633,-0.1653,-0.1638,-0.1639,-0.164,-0.164,-0.1686,-0.1686,0,0,0,0,0,0,-0.1576,-0.1579,-0.1606,-0.1607,-0.1588,-0.1601,-0.1603,-0.161,-0.162,-0.1621,-0.1612,-0.1611,-0.163,-0.1632,-0.1634,-0.1653,-0.1639,-0.164,-0.1641,-0.1685,-0.1686,-0.1686,0,0,0,0,0,0,-0.1575,-0.1579,-0.1605,-0.1593,-0.1597,-0.1602,-0.161,-0.161,-0.1615,-0.1622,-0.1623,-0.1616,-0.1629,-0.1632,-0.1646,-0.1654,-0.1641,-0.1642,-0.1685,-0.1685,-0.1686,-0.1693,0,0,0,0,0,0,-0.1574,-0.1578,-0.1585,-0.1593,-0.1597,-0.1618,-0.161,-0.1611,-0.1617,-0.1616,-0.1626,-0.1627,-0.1629,-0.1645,-0.1648,-0.1655,-0.1643,-0.1684,-0.1685,-0.1686,-0.1692,-0.1694,-0.1695,0,0,0,0,0,-0.1573,-0.1587,-0.1586,-0.1589,-0.1606,-0.1619,-0.1621,-0.1623,-0.1618,-0.1624,-0.1628,-0.1627,-0.1652,-0.1646,-0.165,-0.1658,-0.1684,-0.1685,-0.1686,-0.1692,-0.1694,-0.1695,0,0,0,0,0,0,-0.1581,-0.1588,-0.1587,-0.1604,-0.161,-0.1618,-0.1627,-0.1625,-0.1634,-0.1633,-0.1635,-0.1637,-0.1652,-0.1656,-0.1649,-0.1674,-0.1667,-0.1669,-0.167,-0.1672,-0.1674,-0.1673,-0.1644,0,0,0,0,0,-0.1584,-0.1594,-0.16,-0.1614,-0.1618,-0.1621,-0.1627,-0.1628,-0.1635,-0.1638,-0.1643,-0.1651,-0.166,-0.1666,-0.1676,-0.1692,-0.1694,-0.1699,-0.1701,-0.1702,-0.1704,-0.1712,-0.1714,-0.169,-0.169,-0.169,0,0,-0.1592,-0.1597,-0.1603,-0.1616,-0.1621,-0.1631,-0.1624,-0.1635,-0.1642,-0.164,-0.1654,-0.1657,-0.1665,-0.1681,-0.1688,-0.1685,-0.1711,-0.1704,-0.1705,-0.1706,-0.1713,-0.1715,-0.1717,-0.1691,-0.1691,-0.169,0,0,-0.1611,-0.1616,-0.1628,-0.1633,-0.164,-0.1642,-0.1645,-0.1652,-0.1655,-0.1668,-0.1666,-0.1674,-0.1691,-0.1696,-0.1701,-0.1719,-0.1718,-0.1722,-0.1731,-0.1739,-0.174,-0.1742,-0.1748,-0.175,-0.1724,-0.1724,-0.1724,0,-0.162,-0.1634,-0.1634,-0.1645,-0.165,-0.1647,-0.1659,-0.1664,-0.1674,-0.1677,-0.1674,-0.1693,-0.1699,-0.1714,-0.1719,-0.1723,-0.1726,-0.1722,-0.174,-0.1742,-0.1743,-0.1749,-0.1751,-0.1724,-0.1724,-0.1724,-0.1724,0,-0.1644,-0.1654,-0.1663,-0.1671,-0.1677,-0.1689,-0.169,-0.1696,-0.1695,-0.1698,-0.1711,-0.1716,-0.1726,-0.173,-0.173,-0.1745,-0.1743,-0.174,-0.1733,-0.1746,-0.1751,-0.1753,-0.1725,-0.1725,-0.1725,-0.1725,0,0,-0.167,-0.1677,-0.168,-0.1684,-0.1691,-0.1698,-0.1708,-0.1717,-0.1722,-0.1728,-0.1737,-0.175,-0.1746,-0.1751,-0.1752,-0.1758,-0.1771,-0.1754,-0.1754,-0.1757,-0.1787,-0.1789,-0.1792,-0.177,-0.177,-0.177,-0.1786,0,-0.169,-0.1707,-0.1707,-0.1723,-0.1732,-0.1728,-0.1737,-0.1741,-0.1743,-0.175,-0.1752,-0.1761,-0.1756,-0.1759,-0.1765,-0.1768,-0.1777,-0.1767,-0.1777,-0.1778,-0.1775,-0.1795,-0.1798,-0.1813,-0.1788,-0.1789,-0.1789,0,-0.1715,-0.1721,-0.1738,-0.1742,-0.1745,-0.1753,-0.176,-0.1767,-0.1772,-0.1773,-0.1778,-0.1776,-0.1786,-0.1779,-0.1792,-0.1785,-0.1789,-0.179,-0.1791,-0.1792,-0.1784,-0.1796,-0.1818,-0.182,-0.1792,-0.1792,-0.1792,0,-0.1732,-0.1744,-0.1756,-0.1758,-0.1763,-0.1769,-0.1771,-0.1776,-0.178,-0.1786,-0.1789,-0.1796,-0.18,-0.1805,-0.1805,-0.18,-0.1818,-0.1811,-0.1818,-0.1818,-0.1823,-0.1823,-0.1845,-0.1825,-0.1825,-0.1825,-0.1825,0,-0.1753,-0.1764,-0.1763,-0.177,-0.1781,-0.178,-0.1791,-0.1793,-0.1796,-0.1803,-0.18,-0.1807,-0.1806,-0.1813,-0.1813,-0.1823,-0.1825,-0.1826,-0.1826,-0.1826,-0.1826,-0.1829,-0.1828,-0.1826,-0.1826,-0.1826,-0.1826,0,-0.1775,-0.1774,-0.1786,-0.1789,-0.179,-0.1798,-0.18,-0.1807,-0.1807,-0.1816,-0.1818,-0.1819,-0.1826,-0.1826,-0.1835,-0.1835,-0.1847,-0.1846,-0.1846,-0.1845,-0.1853,-0.1852,-0.1878,-0.1881,-0.1859,-0.1859,-0.186,0,-0.1789,-0.1796,-0.1799,-0.1803,-0.1806,-0.1812,-0.1816,-0.1815,-0.1819,-0.1824,-0.1829,-0.1836,-0.1842,-0.1853,-0.1855,-0.1861,-0.186,-0.1868,-0.1861,-0.186,-0.1859,-0.1859,-0.1859,-0.187,-0.187,-0.187,-0.187,0,-0.1814,-0.1812,-0.1818,-0.1823,-0.1828,-0.1832,-0.1836,-0.1839,-0.1838,-0.1843,-0.1849,-0.1853,-0.1861,-0.1868,-0.1873,-0.1875,-0.1872,-0.1872,-0.1874,-0.1875,-0.1874,-0.1874,-0.1849,-0.1872,-0.1872,-0.1872,-0.1872,-0.1872,-0.1832,-0.1838,-0.184,-0.1846,-0.1848,-0.1851,-0.1857,-0.1857,-0.1863,-0.1868,-0.1867,-0.1874,-0.1877,-0.1884,-0.1886,-0.1892,-0.1889,-0.1892,-0.1893,-0.1893,-0.1894,-0.1873,-0.1893,-0.1893,-0.1893,-0.1893,-0.1893,0,-0.1856,-0.1857,-0.1862,-0.1867,-0.1871,-0.1866,-0.187,-0.1874,-0.188,-0.1883,-0.1887,-0.1894,-0.19,-0.1901,-0.1906,-0.191,-0.1909,-0.1911,-0.1911,-0.1912,-0.1897,-0.1894,-0.1912,-0.1912,-0.1912,-0.1912,-0.1912,-0.1912,-0.1869,-0.1879,-0.1877,-0.1887,-0.1888,-0.1895,-0.1897,-0.1899,-0.1901,-0.1909,-0.1913,-0.1913,-0.1915,-0.1919,-0.1924,-0.1924,-0.1926,-0.1929,-0.1929,-0.1915,-0.1913,-0.1911,-0.1909,-0.193,-0.193,-0.1943,-0.1943,-0.1943]},{"header":{"parameterUnit":"m.s-1","parameterCategory":1,"la1":30.2991,"la2":30.254,"lo1":-89.0895,"lo2":-89.0444,"dy":0.0017,"dx":0.0017,"nx":28,"ny":28,"refTime":"2024-10-03T09:00:00:Z","depth":0,"parameterNumber":3,"parameterNumberName":"V-component_of_WINDS"},"data":[0,0,0,0,0,0,0,0,0,0,0,0,0,0,0,0,0,0,0,0,0,0,0,0,0,0,0,0,0,0,0,0,0,0,0,0,0,0,0,0,0,0,0,0,0,0,0,0,0,0,0,0,0,0,0,0,0,0,-2.7086,-2.7086,0,-2.7114,-2.7115,-2.7115,-2.7081,-2.708,-2.7078,-2.7077,-2.7104,-2.7106,-2.7108,0,0,0,0,0,0,0,0,0,0,0,0,0,-2.6999,-2.7001,-2.7086,-2.7086,-2.7086,-2.7114,-2.7115,-2.7115,-2.7081,-2.708,-2.7078,-2.7077,-2.7104,-2.7106,-2.7108,0,0,0,0,0,0,0,0,0,0,0,0,0,-2.7033,-2.7002,-2.7086,-2.7073,-2.7072,-2.7114,-2.7115,-2.7115,-2.7081,-2.7079,-2.7078,-2.7076,-2.7103,-2.7106,-2.7109,-2.7164,0,0,-2.7117,-2.7119,0,0,0,0,0,0,0,0,-2.7031,-2.7036,-2.7074,-2.7074,-2.7073,-2.7092,-2.7094,-2.7131,-2.7082,-2.7078,-2.7077,-2.7075,-2.7102,-2.7105,-2.7114,-2.7165,-2.7166,-2.7118,-2.7119,-2.7121,-2.7121,0,0,0,0,0,0,0,-2.7029,-2.7035,-2.7097,-2.7075,-2.7074,-2.7065,-2.7068,-2.7101,-2.71,-2.7078,-2.7076,-2.708,-2.7101,-2.7111,-2.7114,-2.7167,-2.7118,-2.712,-2.7122,-2.7123,-2.7263,-2.7265,0,0,0,0,0,0,-2.7029,-2.7033,-2.7096,-2.7098,-2.7047,-2.7068,-2.7071,-2.7088,-2.7099,-2.7099,-2.7081,-2.7078,-2.7107,-2.7111,-2.7115,-2.7179,-2.7121,-2.7123,-2.7125,-2.7261,-2.7264,-2.7266,0,0,0,0,0,0,-2.7027,-2.7034,-2.7095,-2.7065,-2.7072,-2.7072,-2.7091,-2.7089,-2.71,-2.7102,-2.7101,-2.7092,-2.7106,-2.7111,-2.7152,-2.718,-2.7124,-2.7127,-2.7259,-2.7262,-2.7265,-2.7309,0,0,0,0,0,0,-2.7024,-2.7034,-2.7056,-2.7066,-2.7074,-2.7132,-2.7092,-2.7091,-2.7105,-2.7101,-2.7112,-2.7112,-2.7105,-2.7148,-2.7155,-2.7183,-2.7129,-2.7256,-2.726,-2.7264,-2.7305,-2.7313,-2.732,0,0,0,0,0,-2.7022,-2.7067,-2.7057,-2.7065,-2.7101,-2.7134,-2.7138,-2.713,-2.7107,-2.7129,-2.713,-2.7112,-2.7176,-2.7152,-2.716,-2.7189,-2.7255,-2.7259,-2.7264,-2.7302,-2.7312,-2.732,0,0,0,0,0,0,-2.706,-2.7068,-2.7057,-2.7107,-2.712,-2.7128,-2.7154,-2.7141,-2.716,-2.7155,-2.7143,-2.7146,-2.7189,-2.7193,-2.7167,-2.7243,-2.7211,-2.7218,-2.7238,-2.7247,-2.7255,-2.7252,-2.7132,0,0,0,0,0,-2.7074,-2.7101,-2.7106,-2.715,-2.7157,-2.7155,-2.7169,-2.7161,-2.7174,-2.7179,-2.7183,-2.7195,-2.7218,-2.7233,-2.7254,-2.7306,-2.7307,-2.733,-2.7338,-2.7344,-2.7349,-2.7375,-2.7384,-2.7281,-2.7281,-2.7281,0,0,-2.7104,-2.7112,-2.7129,-2.7158,-2.7167,-2.7194,-2.716,-2.719,-2.7209,-2.7183,-2.7221,-2.7225,-2.7238,-2.7284,-2.7304,-2.7289,-2.7378,-2.735,-2.7354,-2.7356,-2.738,-2.739,-2.7399,-2.7284,-2.7283,-2.7283,0,0,-2.7171,-2.7181,-2.7217,-2.7227,-2.7241,-2.7239,-2.7248,-2.7258,-2.726,-2.7298,-2.7279,-2.7302,-2.7342,-2.7351,-2.7361,-2.7432,-2.7415,-2.7439,-2.7478,-2.7504,-2.7512,-2.7519,-2.7543,-2.7551,-2.7445,-2.7445,-2.7445,0,-2.7206,-2.7246,-2.7238,-2.7269,-2.7282,-2.726,-2.7296,-2.7306,-2.7326,-2.7335,-2.7318,-2.7367,-2.7374,-2.7421,-2.7438,-2.7448,-2.7456,-2.7437,-2.7512,-2.7519,-2.7525,-2.7547,-2.7556,-2.7447,-2.7447,-2.7447,-2.7447,0,-2.7288,-2.7316,-2.7344,-2.7364,-2.738,-2.7414,-2.7409,-2.7426,-2.7417,-2.7417,-2.7456,-2.7464,-2.7486,-2.7497,-2.7488,-2.7542,-2.7532,-2.7514,-2.7482,-2.7538,-2.7558,-2.7567,-2.7451,-2.745,-2.7449,-2.7449,0,0,-2.7379,-2.7394,-2.7404,-2.7413,-2.7427,-2.7448,-2.7481,-2.7502,-2.7516,-2.7531,-2.7557,-2.7591,-2.7574,-2.7585,-2.7578,-2.76,-2.7654,-2.7579,-2.7579,-2.7591,-2.7712,-2.7725,-2.7735,-2.7644,-2.7645,-2.7647,-2.771,0,-2.7445,-2.7502,-2.7495,-2.7548,-2.7573,-2.7553,-2.7581,-2.7592,-2.7593,-2.7613,-2.7614,-2.7638,-2.7614,-2.762,-2.7642,-2.7643,-2.7678,-2.7638,-2.7666,-2.7667,-2.7662,-2.7746,-2.776,-2.7819,-2.7719,-2.772,-2.7721,0,-2.753,-2.7548,-2.7604,-2.7613,-2.7624,-2.7649,-2.7668,-2.7688,-2.77,-2.7699,-2.7712,-2.77,-2.7731,-2.77,-2.7742,-2.7715,-2.7726,-2.7728,-2.773,-2.7731,-2.7696,-2.7747,-2.7838,-2.7847,-2.7734,-2.7733,-2.7732,0,-2.7589,-2.7627,-2.7665,-2.7673,-2.7686,-2.7704,-2.7709,-2.7719,-2.7733,-2.7749,-2.7757,-2.7777,-2.7788,-2.7803,-2.7796,-2.7775,-2.7839,-2.7808,-2.7837,-2.7837,-2.785,-2.7849,-2.7943,-2.7861,-2.786,-2.786,-2.786,0,-2.7663,-2.7697,-2.7692,-2.7715,-2.7753,-2.7744,-2.7782,-2.7785,-2.7794,-2.7817,-2.7801,-2.7822,-2.7813,-2.7834,-2.7829,-2.7864,-2.7869,-2.7868,-2.7866,-2.7868,-2.7868,-2.7874,-2.7869,-2.7863,-2.7862,-2.7862,-2.7861,0,-2.7734,-2.7732,-2.7772,-2.778,-2.7783,-2.7811,-2.7817,-2.7838,-2.7838,-2.7867,-2.7873,-2.7872,-2.7895,-2.7891,-2.7917,-2.7913,-2.7956,-2.795,-2.7952,-2.795,-2.7979,-2.7976,-2.8078,-2.809,-2.8002,-2.8003,-2.8004,0,-2.778,-2.7806,-2.7818,-2.7832,-2.7839,-2.7863,-2.7876,-2.7868,-2.7883,-2.7898,-2.7917,-2.7939,-2.7956,-2.7995,-2.7996,-2.8015,-2.8008,-2.8042,-2.8011,-2.8012,-2.8006,-2.8004,-2.8006,-2.8048,-2.8049,-2.805,-2.8051,0,-2.7862,-2.786,-2.788,-2.79,-2.7916,-2.7931,-2.7945,-2.7957,-2.7951,-2.7968,-2.7992,-2.8005,-2.8032,-2.8053,-2.8071,-2.8076,-2.8062,-2.8061,-2.8068,-2.807,-2.807,-2.8069,-2.7967,-2.8058,-2.8057,-2.8057,-2.8056,-2.8056,-2.7921,-2.7943,-2.7954,-2.7976,-2.7986,-2.7999,-2.8019,-2.8021,-2.8041,-2.8062,-2.8057,-2.8083,-2.8093,-2.8116,-2.8123,-2.8143,-2.813,-2.8142,-2.8144,-2.8147,-2.8149,-2.8068,-2.8147,-2.8147,-2.8146,-2.8146,-2.8146,0,-2.8,-2.8006,-2.8027,-2.8047,-2.8064,-2.8051,-2.8065,-2.808,-2.8104,-2.8115,-2.8133,-2.8159,-2.818,-2.8183,-2.8202,-2.8218,-2.8212,-2.8223,-2.8221,-2.8222,-2.8161,-2.8152,-2.8228,-2.8228,-2.8228,-2.8228,-2.8228,-2.8228,-2.8043,-2.8079,-2.8078,-2.8117,-2.8123,-2.8149,-2.8158,-2.817,-2.8178,-2.8209,-2.8227,-2.8229,-2.8236,-2.8256,-2.8274,-2.8274,-2.8281,-2.8295,-2.8292,-2.8235,-2.8226,-2.8219,-2.821,-2.8297,-2.8297,-2.8351,-2.8352,-2.8352]}]]